Port Angeles, WA

10:25 AM PST on January 23, 2018 (GMT -0800)
Fairchild International

Weather History for KCLM - March, 2013

Change the Weather History Date:

Saturday, March 2, 2013

  Actual Average Record
Temperature  
Mean Temperature 44 °F -  
Max Temperature 48 °F 48 °F 54 °F (1975)
Min Temperature 39 °F 35 °F 25 °F (1962)
Degree Days  
Heating Degree Days 22    
Moisture  
Dew Point 42 °F    
Average Humidity 88    
Maximum Humidity 97    
Minimum Humidity 67    
Precipitation  
Precipitation 0.05 in - - ()
Sea Level Pressure  
Sea Level Pressure 30.14 in    
Wind  
Wind Speed 6 mph (West)    
Max Wind Speed 20 mph    
Max Gust Speed 31 mph    
Visibility 7 miles    
Events Fog , Rain    
Averages and records for this station are not official NWS values.
T = Trace of Precipitation, MM = Missing Value Source: NWS Daily Summary

Daily Weather History Graph

Daily Weather History Graph

Search for Another Location

Airport or City:

Trip Planner

Search our weather history database for the weather conditions in past years. The results will help you decide how hot, cold, wet, or windy it might be!

Date:

Astronomy

Mar. 02, 2013 Rise Set
Actual Time 6:52 AM PST 6:00 PM PST
Civil Twilight 6:21 AM PST 6:31 PM PST
Nautical Twilight 5:45 AM PST 7:07 PM PST
Astronomical Twilight 5:09 AM PST 7:43 PM PST
Moon No Moon Rise 8:57 AM PST (3/2)
Length of Visible Light 12h 10m
Length of Day
11h 08m
Waning Gibbous, 73% of the Moon is Illuminated
Mar 2
Waning Gibbous
Mar 4
Last Quarter
Mar 11
New
Mar 19
First Quarter
Mar 27
Full

Hourly Weather History & Observations

Time (PST) Temp. Windchill Dew Point Humidity Pressure Visibility Wind Dir Wind Speed Gust Speed Precip Events Conditions
12:53 AM 48.2 °F - 46.4 °F 93% 30.22 in 10.0 mi SE 8.1 mph - N/A   Overcast
1:34 AM 48.2 °F - 46.4 °F 93% 30.22 in 10.0 mi SE 6.9 mph - N/A   Overcast
1:53 AM 48.9 °F - 46.9 °F 93% 30.22 in 10.0 mi SE 6.9 mph - N/A   Overcast
2:53 AM 48.0 °F - 46.9 °F 96% 30.19 in 6.0 mi SE 5.8 mph - N/A   Overcast
3:53 AM 48.2 °F - 46.4 °F 93% 30.17 in 10.0 mi Calm Calm - N/A   Overcast
4:36 AM 48.0 °F - 46.0 °F 93% 30.15 in 10.0 mi SE 5.8 mph - N/A   Overcast
4:53 AM 46.9 °F - 46.0 °F 97% 30.15 in 10.0 mi Calm Calm - N/A   Overcast
5:04 AM 46.9 °F - 46.0 °F 97% 30.15 in 7.0 mi Calm Calm - N/A   Overcast
5:11 AM 46.9 °F - 45.0 °F 93% 30.15 in 1.8 mi Calm Calm - N/A   Overcast
5:51 AM 46.4 °F 45.2 °F 44.6 °F 93% 30.14 in 0.5 mi NW 3.5 mph - N/A Fog Fog
5:53 AM 46.0 °F - 45.0 °F 96% 30.14 in 0.5 mi Calm Calm - N/A Fog Fog
6:09 AM 46.9 °F - 45.0 °F 93% 30.13 in 2.0 mi NW 3.5 mph - N/A   Overcast
6:16 AM 46.9 °F - 46.0 °F 97% 30.13 in 5.0 mi Calm Calm - N/A   Overcast
6:53 AM 46.9 °F - 46.0 °F 97% 30.12 in 6.0 mi Calm Calm - N/A   Overcast
7:33 AM 48.0 °F - 46.9 °F 96% 30.11 in 2.0 mi Calm Calm - N/A   Overcast
7:44 AM 48.0 °F - 46.0 °F 93% 30.10 in 4.0 mi SSE 3.5 mph - N/A   Overcast
7:53 AM 48.0 °F - 46.0 °F 93% 30.10 in 4.0 mi SSE 4.6 mph - N/A   Overcast
8:45 AM 48.9 °F - 46.9 °F 93% 30.09 in 10.0 mi Calm Calm - N/A   Overcast
8:53 AM 48.9 °F - 46.9 °F 93% 30.09 in 7.0 mi Calm Calm - N/A   Overcast
9:29 AM 48.9 °F - 46.9 °F 93% 30.08 in 5.0 mi Calm Calm - N/A   Overcast
9:53 AM 48.9 °F - 46.9 °F 93% 30.08 in 4.0 mi Calm Calm - 0.00 in Rain Light Rain
10:51 AM 48.2 °F - 46.4 °F 93% 30.07 in 4.0 mi NNW 8.1 mph - 0.00 in   Overcast
10:53 AM 48.0 °F - 46.0 °F 93% 30.08 in 5.0 mi NW 5.8 mph - 0.00 in   Overcast
11:53 AM 44.1 °F 35.9 °F 42.1 °F 93% 30.10 in 10.0 mi WNW 19.6 mph 28.8 mph 0.00 in Rain Light Rain
12:21 PM 44.1 °F 36.8 °F 39.9 °F 85% 30.10 in 7.0 mi WNW 16.1 mph 31.1 mph 0.00 in Rain Light Rain
12:53 PM 44.1 °F 37.7 °F 41.0 °F 89% 30.11 in 10.0 mi WNW 12.7 mph 21.9 mph 0.01 in Rain Light Rain
1:13 PM 44.1 °F 36.5 °F 41.0 °F 89% 30.10 in 6.0 mi WNW 17.3 mph 25.3 mph 0.02 in Rain Light Rain
1:30 PM 44.1 °F 37.1 °F 41.0 °F 89% 30.10 in 9.0 mi WNW 15.0 mph 23.0 mph 0.02 in Rain Light Rain
1:53 PM 43.0 °F 36.4 °F 39.9 °F 89% 30.12 in 9.0 mi West 12.7 mph - 0.03 in Rain Light Rain
2:53 PM 43.0 °F 35.7 °F 39.9 °F 89% 30.12 in 10.0 mi WNW 15.0 mph - 0.00 in Rain Light Rain
3:53 PM 44.1 °F 37.7 °F 39.0 °F 82% 30.12 in 10.0 mi West 12.7 mph - 0.00 in Rain Light Rain
4:53 PM 44.1 °F 37.4 °F 37.9 °F 79% 30.13 in 10.0 mi WNW 13.8 mph - 0.00 in Rain Light Rain
5:53 PM 43.0 °F 35.4 °F 37.0 °F 80% 30.14 in 10.0 mi West 16.1 mph - 0.00 in Rain Light Rain
6:53 PM 42.1 °F 33.3 °F 34.0 °F 73% 30.15 in 10.0 mi West 19.6 mph - 0.01 in   Clear
7:53 PM 42.1 °F 34.9 °F 32.0 °F 67% 30.17 in 10.0 mi West 13.8 mph - N/A   Clear
8:53 PM 41.0 °F 35.2 °F 30.9 °F 67% 30.20 in 10.0 mi West 9.2 mph 18.4 mph N/A   Mostly Cloudy
9:53 PM 39.0 °F 31.8 °F 32.0 °F 76% 30.19 in 10.0 mi WSW 11.5 mph - N/A   Clear
10:30 PM 39.9 °F 32.1 °F 33.1 °F 77% 30.19 in 10.0 mi WSW 13.8 mph 25.3 mph 0.00 in Rain Light Rain
10:53 PM 39.0 °F 32.3 °F 33.1 °F 79% 30.20 in 10.0 mi WSW 10.4 mph - 0.00 in   Partly Cloudy
11:53 PM 39.0 °F 33.4 °F 30.9 °F 73% 30.21 in 10.0 mi West 8.1 mph - N/A   Partly Cloudy